Погода в Палермо

Италия     38°07′59″N   13°20′50″E
темп.,
°C
ветер,
м/с
пор.,
м/с
влажн.,
%
обл.,
%
осадки,
мм/ч
давл.,
гПа
погр.,
м
20 мая, пт
пт2023:00+19юв44700 0.0 1025239
02:00+19юз11620 0.0 102681
05:00+19зюз22730 0.0 1026159
08:00+20зюз23710 0.0 1028251
11:00+20сз43680 0.0 1028391
14:00+21ссз44660 0.0 1028450
17:00+21с33655 0.0 1027504
20:00+20св22722 0.0 1026316
21 мая, сб
сб2123:00+19вюв22745 0.0 1026139
02:00+18ю217045 0.0 102586
05:00+18ююв21645 0.0 102495
08:00+19юв226360 0.0 1024156
11:00+20св22595 0.0 1023245
14:00+21св33535 0.0 1022339
17:00+22всв33515 0.0 1021481
20:00+20вюв34630 0.0 1020130
22 мая, вс
вс2223:00+19юв34580 0.0 1019139
02:00+20вюв23510 0.0 1018135
05:00+19юв33510 0.0 1016159
08:00+20вюв23485 0.0 1016165
11:00+21всв33500 0.0 1016214
14:00+22всв44580 0.0 1016222
17:00+22в44600 0.0 1015235
20:00+20вюв45640 0.0 1014115
23 мая, пн
пн2323:00+20вюв45600 0.0 1014142
02:00+21юв44564 0.0 101394
05:00+21вюв33550 0.0 101256
08:00+22вюв22520 0.0 101358
11:00+23всв21500 0.0 1012121
14:00+23всв22520 0.0 1012149
17:00+22в32580 0.0 1012217
20:00+21вюв44670 0.0 101196
24 мая, вт
вт2423:00+22юв33570 0.0 101129
02:00+22юв11590 0.0 101111
05:00+22в22580 0.0 101013
08:00+23в11565 0.0 101133
11:00+23всв3356100 0.0 1012100
14:00+24в445986 0.0 101191
17:00+23вюв56625 0.0 1010132
20:00+23юв33640 0.0 101141